DLH443 KDTW-EDDF

Flight info

Callsign DLH443
Flight time N/A
Altitude 31000
Route ZETTR4 DUTEL/N0472F330 DCT YXI DCT AGLUK DCT CEFOU N579A TUDEP/M082F350 NATT NETKI/N0469F370 DCT REVNU DCT MORAG DCT NUCHU L607 KONAN UL607 SPI T180 NIVNU T847 IMCOM IMCOM1A
Aircraft A343/H-SDE2E3FGHIJ4J5M1RWXY/LB1D1

Departure

Time 2026-05-05 22:45
Airport Detroit Metropolitan Wayne County Airport (KDTW)

Arrival

Time N/A
Airport Frankfurt Main Airport (EDDF)
Time Latitude Longitude Altitude Speed Heading
2026-05-05 22:18 42.22182 -83.35142 651 ft 0 kts 14°
2026-05-05 22:32 42.22169 -83.35146 651 ft 4 kts 14°
2026-05-05 22:32 42.22143 -83.35156 651 ft 4 kts 14°
2026-05-05 22:32 42.22121 -83.35164 651 ft 2 kts 15°
2026-05-05 22:32 42.22099 -83.35167 652 ft 4 kts 325°
2026-05-05 22:33 42.22093 -83.35144 653 ft 4 kts 269°
2026-05-05 22:33 42.22093 -83.35114 653 ft 1 kts 269°
2026-05-05 22:37 42.22093 -83.35115 653 ft 2 kts 269°
2026-05-05 22:37 42.22091 -83.35168 651 ft 7 kts 263°
2026-05-05 22:38 42.22067 -83.35218 650 ft 6 kts 221°
2026-05-05 22:38 42.22028 -83.35247 651 ft 8 kts 208°
2026-05-05 22:38 42.21978 -83.35283 650 ft 9 kts 208°
2026-05-05 22:38 42.21917 -83.35325 650 ft 9 kts 202°
2026-05-05 22:39 42.21849 -83.35344 649 ft 10 kts 200°
2026-05-05 22:39 42.21823 -83.35421 649 ft 10 kts 265°
2026-05-05 22:39 42.21819 -83.35535 649 ft 14 kts 269°
2026-05-05 22:39 42.21818 -83.35690 648 ft 17 kts 270°
2026-05-05 22:40 42.21816 -83.35842 648 ft 15 kts 268°
2026-05-05 22:40 42.21814 -83.35973 650 ft 13 kts 268°
2026-05-05 22:40 42.21811 -83.36102 653 ft 15 kts 268°
2026-05-05 22:40 42.21822 -83.36250 652 ft 16 kts 295°
2026-05-05 22:41 42.21879 -83.36392 651 ft 18 kts 298°
2026-05-05 22:41 42.21939 -83.36536 652 ft 18 kts 299°
2026-05-05 22:41 42.22004 -83.36697 652 ft 20 kts 299°
2026-05-05 22:41 42.22067 -83.36779 655 ft 5 kts
2026-05-05 22:42 42.22136 -83.36737 654 ft 16 kts 29°
2026-05-05 22:42 42.22238 -83.36661 651 ft 16 kts 29°
2026-05-05 22:42 42.22335 -83.36590 654 ft 15 kts 28°
2026-05-05 22:42 42.22424 -83.36525 650 ft 14 kts 28°
2026-05-05 22:43 42.22505 -83.36467 650 ft 12 kts 25°
2026-05-05 22:43 42.22556 -83.36501 650 ft 9 kts 303°
2026-05-05 22:43 42.22593 -83.36611 648 ft 18 kts 269°
2026-05-05 22:43 42.22483 -83.36730 647 ft 33 kts 208°
2026-05-05 22:44 42.22117 -83.37002 650 ft 87 kts 208°
2026-05-05 22:44 42.21435 -83.37505 652 ft 135 kts 208°
2026-05-05 22:44 42.20490 -83.38212 662 ft 173 kts 209°
2026-05-05 22:44 42.19478 -83.38981 1188 ft 170 kts 215°
2026-05-05 22:45 42.18757 -83.40008 1612 ft 171 kts 243°
2026-05-05 22:45 42.18382 -83.41568 1905 ft 184 kts 254°
2026-05-05 22:45 42.17759 -83.43182 2031 ft 206 kts 239°
2026-05-05 22:45 42.16940 -83.44876 2288 ft 224 kts 240°
2026-05-05 22:46 42.16114 -83.46717 2559 ft 241 kts 243°
2026-05-05 22:46 42.15268 -83.48741 2940 ft 254 kts 244°
2026-05-05 22:46 42.14416 -83.50865 3476 ft 261 kts 245°
2026-05-05 22:46 42.13812 -83.53121 4353 ft 249 kts 263°
2026-05-05 22:47 42.13875 -83.55405 5212 ft 246 kts 284°
2026-05-05 22:47 42.14635 -83.57477 5915 ft 250 kts 301°
2026-05-05 22:47 42.15680 -83.59364 6561 ft 253 kts 302°
2026-05-05 22:47 42.16763 -83.61249 6908 ft 256 kts 302°
2026-05-05 22:48 42.17835 -83.63125 7000 ft 256 kts 301°
2026-05-05 22:48 42.18921 -83.65037 6998 ft 257 kts 301°
2026-05-05 22:48 42.20007 -83.66949 6998 ft 258 kts 302°
2026-05-05 22:48 42.21308 -83.68650 6991 ft 267 kts 320°
2026-05-05 22:49 42.23060 -83.69587 6999 ft 280 kts 346°
2026-05-05 22:49 42.25030 -83.69364 7246 ft 291 kts 10°
2026-05-05 22:49 42.26978 -83.68506 7681 ft 298 kts 13°
2026-05-05 22:49 42.28916 -83.67572 8195 ft 302 kts 13°
2026-05-05 22:50 42.30855 -83.66371 8668 ft 314 kts 30°
2026-05-05 22:50 42.32583 -83.64523 9204 ft 321 kts 37°
2026-05-05 22:50 42.34262 -83.62493 9684 ft 326 kts 38°
2026-05-05 22:50 42.35958 -83.60427 10117 ft 331 kts 38°
2026-05-05 22:51 42.37708 -83.58310 10380 ft 344 kts 38°
2026-05-05 22:51 42.39526 -83.56119 10628 ft 356 kts 38°
2026-05-05 22:51 42.41407 -83.53856 10846 ft 369 kts 38°
2026-05-05 22:51 42.43353 -83.51515 11073 ft 380 kts 38°
2026-05-05 22:52 42.45337 -83.49129 11281 ft 392 kts 38°
2026-05-05 22:52 42.47402 -83.46643 11479 ft 403 kts 38°
2026-05-05 22:52 42.49528 -83.44082 11731 ft 413 kts 38°
2026-05-05 22:52 42.51687 -83.41477 12121 ft 418 kts 38°
2026-05-05 22:53 42.53789 -83.38725 12571 ft 424 kts 47°
2026-05-05 22:53 42.55557 -83.35501 13075 ft 428 kts 54°
2026-05-05 22:53 42.57212 -83.32135 13553 ft 431 kts 54°
2026-05-05 22:53 42.58844 -83.28781 13977 ft 434 kts 54°
2026-05-05 22:54 42.60519 -83.25343 14349 ft 438 kts 55°
2026-05-05 22:54 42.62213 -83.21875 14739 ft 442 kts 55°
2026-05-05 22:54 42.63920 -83.18382 15128 ft 446 kts 55°
2026-05-05 22:54 42.65643 -83.14855 15504 ft 450 kts 56°
2026-05-05 22:55 42.67374 -83.11309 15977 ft 451 kts 56°
2026-05-05 22:55 42.69112 -83.07744 16352 ft 455 kts 56°
2026-05-05 22:55 42.70866 -83.04144 16702 ft 459 kts 56°
2026-05-05 22:55 42.72613 -83.00555 17076 ft 462 kts 57°
2026-05-05 22:56 42.74394 -82.96890 17464 ft 466 kts 57°
2026-05-05 22:56 42.76183 -82.93205 17852 ft 469 kts 57°
2026-05-05 22:56 42.77994 -82.89482 18226 ft 473 kts 56°
2026-05-05 22:56 42.80090 -82.86015 18578 ft 476 kts 43°
2026-05-05 22:57 42.82517 -82.82922 18827 ft 481 kts 40°
2026-05-05 22:57 42.85018 -82.79876 19177 ft 483 kts 39°
2026-05-05 22:57 42.87530 -82.76819 19566 ft 485 kts 39°
2026-05-05 22:57 42.90041 -82.73753 19973 ft 486 kts 39°
2026-05-05 22:58 42.92657 -82.70920 20309 ft 485 kts 29°
2026-05-05 22:58 42.95579 -82.68642 20680 ft 484 kts 23°
2026-05-05 22:58 42.98580 -82.66542 21024 ft 486 kts 22°